Temperature
9 9 9 9 9 10 10 10 10 10 10 10 10 10 11 11 11 11 11 11 11 11 11 11 11 11 10 10 10 10 10 10 10 10 9 9 9 9 9 9 9 9 8
9 9 9 9 9 9 9 10 10 10 10 10 10 10 10 10 10 10 10 10 10 10 10 10 10 10 10 10 10 10 10 10 9 9 9 8 8 9 9 9 8 8 8
9 9 8 9 9 9 9 9 9 10 10 10 10 10 10 10 10 10 10 10 10 10 10 10 10 10 10 10 9 9 9 9 9 9 8 8 8 8 8 8 8 8 7
8 8 8 8 8 9 9 9 9 9 9 9 9 9 9 9 9 9 9 9 9 9 9 9 9 9 9 9 9 9 9 9 9 8 8 8 8 7 7 7 7 7 7
8 8 8 8 8 8 9 9 9 9 9 9 9 9 9 9 9 9 9 9 9 9 9 9 9 9 9 9 9 9 8 8 8 8 8 8 8 8 7 7 7 7 7
8 8 8 8 8 8 8 8 8 8 8 8 9 9 9 9 9 8 8 9 9 9 8 8 8 8 8 8 8 8 8 8 8 8 8 7 7 7 7 6 6 6 6
7 7 7 7 7 7 8 8 8 8 8 8 8 8 8 8 8 8 8 8 8 8 8 8 8 8 8 8 8 7 7 7 7 7 7 7 7 7 7 6 6 5 5
7 7 7 7 7 7 7 7 7 8 8 8 8 8 8 8 8 8 8 8 8 8 8 8 8 7 7 7 7 7 7 7 7 7 7 7 7 7 7 6 6 5 5
6 7 7 7 7 7 7 7 7 7 7 7 7 7 7 7 7 7 7 7 7 7 7 7 7 7 7 7 7 6 6 6 6 6 6 6 6 6 6 6 5 5 4
6 6 6 6 7 7 7 7 7 7 7 7 7 7 7 7 7 7 7 7 7 7 7 7 6 6 6 6 6 6 6 6 6 6 6 6 6 6 5 5 5 5 4
5 6 6 6 6 6 6 6 6 7 7 6 6 6 7 7 6 6 6 6 6 6 6 6 6 6 6 6 6 6 5 5 5 5 5 5 5 5 5 4 4 4 4
5 5 5 6 6 6 6 6 6 6 6 6 6 6 6 6 6 6 6 6 6 6 6 6 6 6 5 5 5 5 5 5 5 5 4 4 4 4 4 4 4 3 3
5 5 5 5 6 6 6 6 6 6 6 6 6 6 6 6 6 6 6 5 5 5 5 5 5 5 5 5 5 4 4 4 4 4 4 4 4 4 3 3 3 3 3
4 4 4 5 5 5 5 6 5 5 5 5 5 5 5 5 5 5 5 5 5 5 5 5 4 4 4 4 4 4 4 4 4 4 3 3 3 3 3 3 3 2 2
4 4 4 4 4 5 5 5 5 5 5 5 5 5 5 4 4 4 4 4 4 4 4 4 4 4 4 3 3 3 3 3 3 3 3 3 3 3 3 3 2 2 1
3 3 3 4 4 4 4 4 4 4 4 4 4 4 4 4 4 4 4 4 4 4 3 3 3 3 3 3 3 2 2 2 2 2 2 2 2 2 2 2 2 2 1
2 3 3 3 3 4 4 4 4 4 4 4 4 4 4 3 3 3 3 3 3 3 3 3 3 3 3 3 2 2 2 2 2 2 2 2 2 2 2 2 1 1 1
2 2 2 3 3 3 3 3 3 3 3 3 3 3 3 3 3 3 3 3 3 2 2 2 2 2 2 2 2 2 1 1 1 1 2 2 1 1 1 1 1 0 0
2 2 2 2 3 3 3 3 3 3 3 3 3 3 3 2 2 2 2 2 2 2 2 2 2 2 1 1 1 1 1 1 1 1 1 1 1 1 1 0 0 0 -0
2 2 2 2 2 2 2 2 2 2 2 2 2 2 2 2 2 2 2 1 1 1 1 1 1 1 1 1 1 1 1 0 0 0 0 0 0 0 0 -0 -0 -0 -1
1 1 1 2 2 2 2 2 2 2 2 2 2 2 2 1 1 1 1 1 1 0 0 0 0 0 0 0 0 0 0 0 -0 -0 -0 -0 -0 -0 -0 -1 -1 -1 -1
1 1 1 1 1 1 1 1 1 1 1 1 1 1 1 1 1 0 0 0 0 -0 -0 -0 -0 -0 -0 -0 -0 -0 -0 -0 -1 -1 -0 -0 -1 -1 -1 -1 -1 -1 -1
-0 0 0 0 1 1 1 1 1 1 1 1 1 1 0 0 -0 -0 -0 -0 -1 -1 -1 -1 -1 -1 -1 -1 -1 -1 -1 -1 -1 -1 -1 -1 -1 -1 -1 -1 -1 -2 -2
-1 -1 -0 -0 -0 0 0 0 0 0 -0 0 0 -0 -0 -0 -1 -1 -1 -1 -1 -1 -1 -2 -2 -2 -2 -2 -2 -2 -2 -2 -2 -1 -1 -1 -1 -2 -2 -2 -2 -2 -2
-1 -1 -1 -1 -1 -1 -0 -1 -1 -1 -1 -1 -1 -1 -1 -1 -1 -1 -1 -1 -1 -1 -2 -2 -2 -2 -2 -2 -2 -2 -2 -2 -2 -2 -2 -2 -2 -2 -2 -2 -2 -3 -3
-2 -2 -2 -1 -1 -1 -1 -1 -1 -1 -1 -1 -1 -1 -1 -2 -2 -2 -2 -2 -2 -2 -2 -2 -3 -3 -3 -2 -2 -2 -3 -3 -3 -2 -2 -2 -3 -3 -3 -3 -3 -3 -3
Wind_Speed
10 9 8 8 7 7 8 7 7 6 5 5 6 6 5 5 4 4 5 5 5 4 4 4 5 5 4 4 4 3 4 2 2 1 1 1 2 2 2 2 2 2 3
9 8 8 8 8 8 8 7 7 6 6 5 5 4 4 3 3 4 4 5 5 4 3 4 4 4 4 5 5 4 3 2 2 2 2 2 3 3 2 3 3 3 3
11 9 9 8 8 8 8 7 7 6 6 6 4 4 3 3 3 4 3 4 4 4 4 4 4 4 4 4 4 5 4 3 3 2 2 2 3 3 3 3 4 4 4
11 10 9 9 9 8 7 7 6 5 5 6 7 7 6 5 4 4 4 4 4 4 4 4 4 4 4 4 4 4 4 4 4 3 3 3 2 3 3 3 3 4 4
11 10 9 9 8 6 6 6 6 5 5 6 7 8 6 5 4 4 5 4 3 4 4 4 4 4 4 4 4 4 4 3 4 3 3 3 3 4 4 5 5 4 4
10 9 7 6 5 5 6 5 6 6 5 5 6 7 8 6 6 6 5 4 3 3 4 4 3 4 4 4 3 3 4 3 3 3 3 4 3 3 4 5 6 5 5
7 8 7 6 6 6 6 6 7 6 6 6 6 6 7 8 8 7 6 5 4 4 4 4 4 4 4 4 4 4 3 4 4 4 3 3 4 3 4 4 5 6 5
6 7 7 7 6 6 6 6 7 6 6 6 6 6 7 6 5 6 5 5 4 4 5 5 5 4 5 5 4 3 3 3 3 4 3 3 3 3 3 3 4 5 5
4 5 5 5 6 6 5 6 6 6 6 6 5 6 6 6 5 5 5 4 4 4 5 5 5 4 4 5 4 4 4 3 4 3 3 3 2 3 3 3 4 4 5
2 3 4 4 4 5 5 5 6 6 6 6 5 5 6 6 5 4 5 4 5 4 5 5 4 4 4 5 5 4 4 4 4 3 3 3 2 2 2 3 4 4 5
3 2 2 3 3 3 4 5 5 6 5 5 5 5 6 6 5 5 5 4 4 4 5 5 5 5 4 5 5 5 5 5 4 4 4 4 3 3 3 3 3 4 5
3 3 2 2 2 2 3 4 4 5 4 5 5 5 5 5 5 5 5 4 5 4 4 5 5 4 4 4 5 5 5 5 5 4 4 4 3 4 3 3 4 4 5
3 2 1 1 2 2 3 3 4 4 3 4 4 5 5 5 5 5 4 4 4 4 3 4 4 4 4 4 4 5 5 4 4 4 4 4 4 4 4 4 4 4 4
3 3 2 2 2 2 2 3 3 3 3 4 4 4 4 4 4 4 4 4 4 4 4 4 4 4 4 4 4 4 4 4 4 4 4 5 5 5 5 4 5 4 4
4 4 3 3 2 2 2 2 2 3 4 4 4 4 4 3 4 4 4 4 4 4 4 4 4 3 4 4 4 4 4 4 4 4 5 5 5 6 5 4 4 4 4
5 4 4 3 3 3 2 2 2 2 4 4 4 4 4 3 3 3 3 4 4 4 4 4 4 4 3 4 5 5 4 4 5 5 4 5 5 5 5 5 5 5 5
5 4 4 4 4 4 3 3 2 2 3 4 4 4 4 4 4 4 4 4 4 3 4 4 4 4 4 5 5 5 4 5 5 5 5 4 4 4 4 4 5 5 6
5 4 4 4 4 4 3 2 2 3 3 3 3 3 4 4 4 4 4 4 3 3 3 4 4 3 4 5 4 4 4 4 5 5 5 5 5 4 4 4 4 5 4
4 4 4 4 4 3 2 1 2 2 2 2 3 3 4 4 4 4 4 3 3 3 3 3 3 3 4 5 5 3 3 4 4 4 4 5 5 4 4 4 4 4 4
3 3 3 3 3 2 1 1 1 1 2 2 2 2 3 4 4 4 3 3 3 3 3 3 3 3 4 4 5 4 3 3 3 3 4 5 5 5 4 4 3 3 4
4 3 3 3 2 2 1 1 1 2 1 1 1 2 2 3 3 3 3 3 3 2 3 2 2 3 3 4 4 4 3 3 3 3 3 3 4 5 5 4 3 3 4
3 3 3 3 3 2 1 1 2 1 1 2 2 2 2 2 3 3 3 3 3 3 3 2 2 2 2 3 3 4 3 4 3 3 3 3 4 4 4 3 2 2 3
3 3 3 3 3 2 2 2 2 1 1 2 2 2 2 2 3 3 3 3 3 3 3 2 2 2 1 2 3 3 3 3 3 3 3 3 3 3 2 1 1 1 1
3 3 3 3 3 3 2 2 1 1 2 2 2 2 3 2 2 2 3 3 3 3 3 3 2 2 2 2 2 1 1 1 1 1 1 1 1 1 1 0 1 1 1
4 3 3 3 3 3 2 2 1 2 2 2 2 2 3 3 2 2 2 2 3 3 3 3 3 3 3 3 3 2 1 1 1 0 0 0 0 0 0 1 1 1 2
4 4 4 3 3 3 2 2 1 2 2 2 2 2 2 2 2 2 1 1 2 2 3 4 4 3 4 3 3 3 3 2 2 1 1 1 1 1 1 1 1 2 2
Wind_Direction
233 228 226 220 209 203 201 194 193 195 184 184 179 178 180 178 176 179 179 180 185 187 189 180 180 182 188 191 186 182 180 184 193 220 261 258 241 235 249 262 271 275 280
232 227 219 213 208 205 199 197 197 196 192 191 188 183 175 174 173 172 180 183 180 183 188 186 184 186 187 193 190 192 195 191 213 239 256 259 243 226 241 250 261 267 271
228 224 218 210 208 204 199 199 201 200 196 184 170 160 152 156 177 181 184 185 184 186 186 200 194 189 187 193 196 199 206 199 207 231 243 255 266 290 234 244 252 261 269
227 225 220 213 212 204 195 198 197 197 194 186 181 178 185 192 198 191 186 185 188 189 189 193 198 195 198 198 198 206 214 206 207 214 237 256 273 262 265 240 246 263 271
225 222 219 218 213 205 195 198 194 190 192 194 192 190 194 199 190 185 186 189 190 192 191 188 197 194 200 207 205 209 215 217 220 221 224 234 238 246 257 266 265 266 265
228 224 218 216 207 202 200 194 187 189 193 197 198 199 197 194 190 191 192 194 197 202 197 191 197 199 199 206 201 206 210 214 222 233 236 236 232 236 249 264 269 273 275
225 218 214 211 206 198 191 187 187 193 196 198 203 205 203 200 200 199 199 195 200 211 208 196 200 205 199 195 190 199 212 217 220 231 244 252 252 251 251 259 270 275 283
228 219 212 207 202 196 191 190 192 197 201 202 207 207 204 204 205 205 205 208 209 213 212 204 200 204 196 189 189 195 209 222 225 230 235 246 258 249 243 252 267 275 277
235 222 214 209 203 203 202 199 201 205 206 205 205 210 205 209 206 202 205 211 211 206 203 205 201 201 197 192 190 199 207 216 228 230 235 244 260 258 254 252 251 259 275
265 229 219 218 216 212 209 207 208 207 209 208 207 212 206 206 203 201 203 204 206 203 198 198 202 203 204 199 197 201 207 211 225 230 232 239 257 261 261 258 256 254 260
287 263 235 224 208 204 208 207 208 205 203 205 207 208 205 200 199 202 204 204 202 199 199 199 202 207 211 204 206 205 205 212 221 226 230 235 253 257 255 258 259 260 261
293 286 245 227 204 204 214 212 207 205 203 201 200 203 202 195 195 200 200 199 202 203 203 202 201 205 207 207 212 211 210 212 219 227 231 239 256 258 255 255 258 263 268
301 296 282 249 225 223 227 223 216 205 201 197 195 195 203 199 198 199 194 195 199 201 203 202 204 207 206 209 216 217 216 216 222 226 235 244 251 256 255 262 267 270 277
299 296 296 287 256 248 246 230 223 207 197 197 196 197 205 200 197 196 192 193 197 199 203 203 206 208 205 208 213 217 215 221 226 232 242 245 246 255 255 260 266 274 281
304 302 303 299 292 269 262 247 228 205 195 197 199 201 198 193 188 189 190 191 196 200 204 201 203 208 208 209 212 221 221 222 227 237 248 252 256 268 264 264 269 275 278
297 303 308 305 302 286 266 249 238 214 196 197 200 194 186 184 183 183 183 186 190 196 201 203 204 209 215 208 213 220 223 228 231 238 250 252 252 258 261 267 268 270 270
294 300 299 296 297 292 274 248 242 222 202 198 196 190 185 185 187 184 183 189 196 200 205 205 210 217 213 207 216 220 226 228 234 238 243 252 256 248 252 262 263 267 270
293 297 301 300 300 294 281 250 223 209 199 193 192 192 190 186 185 187 191 197 200 206 212 210 214 217 212 207 215 224 234 242 243 243 245 246 256 245 253 265 272 278 283
283 291 299 298 303 301 288 226 216 198 186 195 199 200 190 183 184 190 194 197 199 209 215 212 211 216 216 208 212 230 244 247 255 256 251 247 256 245 254 262 270 284 301
311 319 317 308 304 298 276 207 210 202 210 217 215 203 191 186 189 192 194 195 196 208 205 208 213 216 221 213 221 229 235 245 261 266 256 249 250 241 247 259 258 272 294
329 332 322 309 303 303 286 234 225 232 237 216 196 187 187 190 187 183 187 182 185 198 200 201 215 221 221 220 231 238 238 236 248 255 262 256 242 247 248 262 256 262 290
331 329 327 320 319 315 273 256 252 246 192 178 179 176 172 175 177 177 177 177 176 188 191 193 219 229 225 235 237 245 248 252 249 252 265 254 240 251 259 269 264 280 298
320 322 322 318 316 306 267 250 264 224 177 173 175 167 164 171 175 179 177 175 181 191 193 199 214 232 253 247 242 244 244 254 262 259 262 251 243 251 256 252 258 279 284
321 322 317 308 307 306 295 270 255 204 181 183 181 172 168 170 171 181 187 186 193 199 199 209 215 226 245 249 254 252 228 226 254 270 211 203 227 218 179 295 325 323 301
313 309 298 295 299 302 294 288 255 195 187 193 186 177 174 170 174 185 195 209 229 222 213 215 215 220 237 251 266 271 257 262 281 298 213 208 217 237 273 327 332 335 328
306 303 299 299 304 307 296 290 261 215 189 185 187 184 178 176 178 168 159 169 221 232 241 245 242 248 246 248 254 263 259 217 173 166 195 214 224 235 251 270 298 308 307
Height
1480 1481 1482 1484 1485 1487 1489 1490 1493 1495 1497 1499 1501 1504 1506 1508 1511 1513 1514 1515 1517 1518 1519 1521 1522 1523 1523 1524 1525 1525 1526 1526 1526 1526 1526 1525 1525 1524 1524 1524 1523 1522 1520
1475 1476 1478 1480 1481 1483 1485 1487 1489 1491 1493 1496 1498 1500 1503 1506 1508 1509 1511 1513 1514 1515 1516 1518 1519 1520 1521 1522 1522 1523 1523 1523 1524 1524 1524 1523 1524 1522 1521 1521 1520 1519 1518
1470 1472 1474 1475 1477 1479 1481 1483 1485 1487 1489 1493 1495 1498 1500 1503 1505 1506 1508 1509 1510 1511 1513 1514 1515 1516 1517 1518 1519 1520 1520 1520 1521 1522 1522 1522 1521 1520 1518 1517 1517 1516 1515
1467 1469 1470 1471 1473 1475 1478 1480 1482 1484 1487 1490 1492 1494 1496 1498 1500 1502 1504 1505 1507 1508 1510 1511 1512 1513 1514 1515 1515 1516 1516 1517 1517 1518 1519 1519 1518 1518 1516 1515 1514 1513 1512
1463 1464 1466 1468 1469 1471 1474 1476 1478 1481 1484 1486 1488 1491 1493 1495 1497 1499 1500 1502 1503 1504 1506 1507 1508 1510 1510 1511 1511 1512 1512 1513 1514 1515 1515 1515 1514 1514 1513 1511 1510 1509 1508
1459 1461 1463 1464 1466 1468 1471 1473 1475 1478 1480 1483 1485 1487 1489 1491 1494 1495 1496 1498 1499 1500 1502 1503 1504 1506 1506 1507 1508 1509 1509 1510 1511 1511 1511 1511 1510 1510 1509 1508 1506 1505 1504
1456 1457 1459 1460 1462 1465 1467 1470 1472 1475 1476 1478 1481 1483 1485 1488 1489 1491 1492 1494 1495 1496 1497 1499 1500 1501 1502 1503 1504 1505 1505 1506 1507 1507 1507 1507 1507 1507 1506 1505 1503 1501 1499
1453 1454 1456 1457 1459 1461 1464 1467 1469 1471 1474 1475 1477 1479 1482 1484 1486 1487 1489 1490 1491 1492 1494 1495 1496 1497 1498 1499 1500 1500 1501 1502 1503 1503 1503 1503 1502 1502 1502 1501 1500 1498 1496
1451 1452 1453 1455 1457 1458 1461 1463 1466 1468 1470 1471 1473 1476 1478 1480 1481 1483 1485 1486 1487 1489 1490 1491 1492 1493 1494 1495 1496 1497 1497 1498 1498 1499 1499 1498 1498 1498 1498 1497 1497 1496 1492
1450 1450 1451 1452 1454 1456 1458 1460 1463 1464 1466 1468 1470 1472 1474 1476 1477 1479 1481 1482 1483 1485 1486 1487 1488 1489 1490 1491 1492 1492 1493 1494 1494 1495 1494 1494 1494 1494 1493 1493 1492 1491 1490
1449 1449 1450 1451 1452 1453 1455 1457 1459 1461 1462 1464 1466 1468 1470 1472 1473 1475 1477 1478 1479 1481 1482 1483 1484 1485 1485 1486 1487 1488 1488 1489 1490 1490 1490 1489 1490 1489 1489 1488 1488 1487 1485
1448 1448 1448 1449 1450 1451 1453 1454 1455 1457 1459 1461 1462 1464 1466 1468 1470 1471 1473 1474 1476 1477 1478 1479 1480 1481 1481 1482 1483 1483 1484 1485 1485 1486 1486 1485 1485 1485 1485 1484 1483 1482 1480
1447 1447 1447 1447 1448 1449 1450 1451 1452 1454 1455 1457 1458 1460 1462 1464 1466 1467 1469 1471 1472 1473 1474 1474 1475 1476 1477 1478 1479 1479 1480 1481 1481 1481 1482 1481 1481 1481 1481 1480 1479 1478 1476
1446 1445 1445 1445 1446 1447 1448 1449 1450 1451 1452 1454 1455 1457 1459 1461 1462 1463 1465 1466 1467 1468 1469 1470 1471 1472 1473 1474 1475 1475 1476 1476 1477 1477 1477 1477 1477 1477 1477 1475 1474 1473 1472
1444 1443 1442 1443 1443 1444 1445 1445 1447 1448 1449 1450 1452 1453 1455 1456 1458 1459 1461 1462 1463 1464 1465 1466 1467 1468 1469 1470 1471 1471 1472 1472 1472 1473 1473 1473 1473 1472 1472 1472 1470 1469 1468
1442 1441 1441 1441 1440 1441 1441 1442 1443 1444 1446 1447 1448 1450 1451 1452 1454 1455 1457 1458 1459 1460 1461 1462 1463 1464 1465 1466 1467 1468 1468 1468 1468 1468 1468 1468 1468 1468 1468 1467 1466 1466 1464
1441 1439 1439 1439 1438 1438 1439 1439 1440 1441 1443 1444 1445 1446 1447 1449 1450 1452 1453 1454 1455 1456 1457 1458 1459 1460 1461 1462 1463 1464 1464 1464 1464 1464 1464 1464 1464 1464 1463 1462 1462 1461 1460
1439 1438 1438 1437 1437 1436 1436 1437 1438 1439 1440 1441 1442 1443 1444 1445 1447 1448 1449 1450 1451 1452 1453 1454 1455 1456 1457 1458 1459 1460 1460 1460 1460 1460 1460 1460 1459 1459 1459 1458 1458 1457 1456
1438 1437 1437 1435 1435 1434 1434 1435 1435 1436 1437 1438 1439 1440 1441 1442 1443 1444 1446 1447 1448 1449 1450 1450 1451 1452 1453 1454 1455 1456 1456 1456 1456 1456 1456 1456 1455 1455 1455 1454 1453 1452 1451
1436 1435 1435 1434 1433 1433 1433 1433 1433 1433 1434 1435 1436 1438 1438 1439 1440 1441 1442 1443 1444 1445 1446 1446 1448 1449 1449 1450 1451 1452 1452 1452 1452 1452 1452 1452 1451 1451 1451 1451 1450 1448 1448
1434 1433 1433 1432 1431 1431 1431 1430 1431 1431 1432 1433 1434 1435 1436 1436 1437 1438 1439 1440 1441 1442 1442 1443 1444 1445 1446 1447 1447 1448 1448 1448 1448 1448 1447 1447 1448 1447 1447 1447 1446 1445 1445
1432 1431 1430 1430 1429 1429 1429 1428 1429 1429 1430 1431 1431 1432 1433 1434 1435 1435 1436 1437 1437 1438 1439 1440 1441 1442 1443 1443 1444 1444 1444 1445 1444 1444 1443 1444 1444 1444 1443 1443 1442 1442 1441
1431 1430 1429 1428 1428 1427 1427 1427 1427 1427 1427 1428 1429 1429 1430 1431 1432 1432 1433 1434 1435 1435 1436 1437 1437 1438 1439 1440 1440 1440 1441 1441 1441 1440 1440 1441 1441 1441 1440 1440 1439 1438 1438
1429 1428 1427 1426 1425 1425 1425 1425 1425 1425 1425 1425 1426 1427 1427 1428 1429 1430 1431 1431 1432 1432 1433 1434 1434 1435 1436 1436 1437 1437 1437 1437 1437 1437 1437 1437 1437 1437 1437 1436 1436 1436 1435
1428 1427 1426 1425 1424 1423 1423 1422 1422 1422 1422 1423 1423 1424 1424 1425 1426 1427 1428 1428 1430 1430 1431 1431 1432 1432 1432 1433 1434 1434 1434 1434 1434 1434 1434 1434 1435 1435 1434 1434 1433 1433 1432
1426 1425 1424 1423 1422 1421 1420 1420 1420 1420 1420 1420 1420 1421 1422 1422 1423 1424 1425 1426 1427 1428 1428 1429 1429 1429 1430 1431 1431 1432 1432 1432 1432 1432 1432 1432 1432 1432 1432 1431 1431 1431 1430